Zurück zum Katalog

STARLINK-11690

AktivKommunikationVLEO
NORAD 64242·PAYLOAD·🇺🇸 United States

Gestartet Jun 3, 2025 von Cape Canaveral Space Force Station

Loading…

Nächste Überflüge (nächste 24 Stunden)

TLE

AktuellSource: CelesTrak SupGP

Epoche: Sep 14, 2026, 22:59 UTC

1 64242C 25119K   26257.95812500  .00021215  00000+0  16468-3 0  2573
2 64242  43.0001 148.1754 0001602 270.0900  58.0406 15.70841600    11

Verfolge STARLINK-11690 in Echtzeit mit AllMySat

Download on the App Store